Regional Weather Roundup
Issued by NWS

Home | Current Version | Previous Version | Text Only | Print | Product List | Glossary Off
Versions: 1 2 3 4 5 6 7 8 9 10 11 12 13 14 15 16 17 18 19 20 21 22 23 24 25 26 27 28 29 30 31 32 33 34 35 36 37 38 39 40 41 42 43 44 45 46 47 48 49 50

000
ASUS43 KFSD 202110
RWRSD

WEATHER ROUNDUP FOR SOUTH DAKOTA
NATIONAL WEATHER SERVICE SIOUX FALLS SD
300 PM CST TUE FEB 20 2018

NOTE: "FAIR" INDICATES FEW OR NO CLOUDS BELOW 12,000 FEET WITH NO
SIGNIFICANT WEATHER AND/OR OBSTRUCTIONS TO VISIBILITY.


SDZ001>005-009-010-012>017-202200-
NORTHWEST AND NORTH CENTRAL SOUTH DAKOTA

CITY           SKY/WX    TMP DP  RH WIND       PRES   REMARKS
BUFFALO          N/A      3  -5  69 W17       30.02R WCI -17
FAITH            N/A      3  -4  72 W15       30.13S WCI -16
MOBRIDGE       FAIR      12   0  58 NW12      30.14S WCI  -2
$$

SDZ012>016-024>037-041>051-057-063-072>074-202200-
SOUTHWEST AND SOUTH CENTRAL SOUTH DAKOTA

CITY           SKY/WX    TMP DP  RH WIND       PRES   REMARKS
RAPID CTY ARPT FAIR       1  -5  75 S14       30.11R WCI -17
PIERRE         FAIR       9   2  73 W18       30.20S WCI -10
CUSTER         FAIR      11  -8  42 W13       29.83S WCI  -4
ELLSWORTH AFB  FAIR       5  -5  62 S8        30.09S WCI  -8
PINE RIDGE     FAIR       5  -3  69 SW9       30.12S WCI  -9
SPEARFISH        N/A      7  -6  56 NW13      30.03R WCI  -9
WINNER         FAIR      10   0  63 NW15      30.22R WCI  -7
$$

SDZ004>011-016>023-039-040-202200-
NORTHEAST SOUTH DAKOTA

CITY           SKY/WX    TMP DP  RH WIND       PRES   REMARKS
ABERDEEN       FAIR      11   1  64 NW18      30.19R WCI  -7
WATERTOWN      CLOUDY    10   3  73 NW20      30.10R WCI  -9
BROOKINGS      FLURRIES  10   2  69 NW21      30.13  WCI  -9
SISSETON         N/A     12   4  70 NW18      30.13R WCI  -6
$$

SDZ017-020-022-023-036>040-048>070-202200-
SOUTHEAST SOUTH DAKOTA

CITY           SKY/WX    TMP DP  RH WIND       PRES   REMARKS
SIOUX FALLS    FAIR      12   4  70 NW15      30.17R WCI  -4
HURON          FAIR      12   3  67 NW21      30.21R WCI  -7
CHAMBERLAIN    FAIR      11   4  72 W16       30.22R WCI  -5
MITCHELL       FAIR      12   4  70 NW20      30.23R WCI  -6
YANKTON        FLURRIES  11   5  77 NW16      30.23R WCI  -6
$$

ABBREVIATIONS USED IN REMARKS
   TC - TEMPERATURE IN CELSIUS
  WCI - WIND CHILL INDEX
   HX - HEAT INDEX
  VSB - VISIBILITY




USA.gov is the U.S. government's official web portal to all federal, state and local government web resources and services.